Weather in Kustarevka

Russia / Ryazan Oblast     54°15′48″N   42°15′55″E
temp.,
°C
wind,
m/s
gust,
m/s
humid.,
%
clouds,
%
prec.,
mm/h
press.,
hPa
HPBL,
m
2 march, tue
tue200:00−2wsw61292100 0.1 1016679
03:00−1wsw61393100 0.1 1013593
06:00+1wsw61392100 0.1 1009746
09:00+1w61398100 0.1 1008686
12:00+1wnw51199100 0.3 1006666
15:00+1wnw41096100 0.5 1006753
18:00−1wnw4108999 0.3 1006395
21:00−2wnw4119099 0.3 1007356
3 march, wed
wed300:00−4wnw41194100 0.1 1007348
03:00−4nw4119399 0.1 1009440
06:00−7nw5139061 0.0 1009515
09:00−7nw6139075 0.1 1012693
12:00−5nw61085100 0.1 1012820
15:00−3nw5107899 0.1 1013957
18:00−4wsw399663 0.1 1013320
21:00−3w4119379 0.1 1013490
4 march, thu
thu400:00−5w4129596 0.1 1012388
03:00−3w499397 0.1 1012675
06:00−4sw51293100 0.1 1009554
09:00−2sw71594100 0.6 1007588
12:00+1sw81588100 0.0 1003881
15:00+1wsw81681100 0.0 10021044
18:000wsw8158298 0.0 1000975
21:000wsw7149499 0.1 1000825
5 march, fri
fri500:000w51098100 0.3 1000553
03:00−2nnw2491100 1.3 1002181
06:00−4nnw2494100 0.0 1003169
09:00−5nnw2388100 0.0 1005238
12:00−3nnw2279100 0.0 1007427
15:00−2n1175100 0.0 1008477
18:00−4ne1287100 0.0 100722
21:00−5ene3596100 0.3 1007211
6 march, sat
sat600:00−5ne3696100 1.3 1005329
03:00−6n3795100 2.4 1005391
06:00−7nnw3596100 0.4 1007239
09:00−9nw369397 0.5 1008268
12:00−6nw478686 0.0 1009696
15:00−5nw468093 0.1 1009902
18:00−7w3592100 0.1 1010142
21:00−9w3792100 0.3 1012180